Terug naar catalogus

FENGYUN 1C DEB

ActiefSSO
NORAD 30566·DEBRIS·🇨🇳 China

Gelanceerd May 10, 1999 vanaf Taiyuan Satellite Launch Center

Loading…

Volgende Passages (komende 24 uur)

TLE

VersSource: Space-Track

Epoch: Sep 14, 2026, 15:48 UTC

1 30566U 99025ALG 26257.65891955  .00001211  00000-0  66212-3 0  9990
2 30566  99.1971 318.6026 0068716 129.2341  23.9746 14.12765723  2768

Volg FENGYUN 1C DEB in realtime met AllMySat

Download on the App Store